Regional Weather Roundup
Issued by NWS Binghamton, NY

Home | Current Version | Previous Version | Text Only | Print | Product List | Glossary On
Versions: 1 2 3 4 5 6 7 8 9 10 11 12 13 14 15 16 17 18 19 20 21 22 23 24 25 26 27 28 29 30 31 32 33 34 35 36 37 38 39 40 41 42 43 44 45 46 47 48 49 50
000
ASUS41 KBGM 022110
RWRBGM
RWRBGM
BINGHAMTON REGIONAL WEATHER ROUNDUP
NATIONAL WEATHER SERVICE BINGHAMTON NY
500 PM EDT TUE SEP 02 2014

Note: "fair" indicates few or no clouds below 12,000 feet with no
significant weather and/or obstructions to visibility.

* = Station(s) that does not report precipitation, such as rain,
snow, etc, also no thunder or fog.

!NYZ009-015>018-022>025-036-037-044>046-055>057-062-022200
...CENTRAL NEW YORK...

CITY           SKY/WX    TMP DP  RH WIND       PRES   REMARKS
BINGHAMTON     MOSUNNY   80  65  59 SW14      29.84F
CORTLAND       FAIR      81  68  65 SW5       29.82S
DANSVILLE      RAIN      75  70  84 NW12G21   29.83R
ELMIRA         CLOUDY    83  67  58 SW10      29.79F HX  85
ITHACA         CLOUDY    82  69  64 SW6       29.81F HX  85
HAMILTON       CLOUDY    82  68  61 CALM      29.79  HX  85
MONTICELLO     MOSUNNY   84  63  48 W9        29.87F HX  85
NORWICH        MOSUNNY   82  64  54 S6        29.80F
ONEONTA        SUNNY     81  63  54 SW3       29.85S
PENN YAN       CLOUDY    79  68  69 SW3       29.80F
ROME           PTSUNNY   84  68  58 SW8       29.76F HX  87
SIDNEY         SUNNY     84  68  58 SW6       29.80F HX  87
SYRACUSE       LGT RAIN  76  67  73 NW10      29.77R
$$

!PAZ038>040-043-044-047-048-072-022200
...NORTHEAST PENNSYLVANIA...

CITY           SKY/WX    TMP DP  RH WIND       PRES   REMARKS
HAZLETON       MOSUNNY   82  64  54 SW6       29.92F
SCRANTON       SUNNY     87  63  44 SW14G20   29.84F HX  88
TOWANDA*       MOSUNNY   84  66  54 S6        29.80F HX  86
$$
&&
KEY
WCI = WIND CHILL INDEX
VSB = VISIBILITY
HX  = HEAT INDEX
$$


USA.gov is the U.S. government's official web portal to all federal, state and local government web resources and services.